Regional Weather Roundup
Issued by NWS

Home | Current Version | Previous Version | Graphics & Text | Print | Product List | Glossary On
Versions: 1 2 3 4 5 6 7 8 9 10 11 12 13 14 15 16 17 18 19 20 21 22 23 24 25 26 27 28 29 30 31 32 33 34 35 36 37 38 39 40 41 42 43 44 45 46 47 48 49 50
000
ASUS45 KSLC 221810
RWRUT

UTAH REGIONAL WEATHER ROUNDUP
NATIONAL WEATHER SERVICE SALT LAKE CITY UT
1100 AM MST SUN JAN 22 2017

UTZ001>011-023>025-221900-

NORTHERN UTAH

CITY           SKY/WX    TMP DP  RH WIND       PRES   REMARKS
BRIGHAM CITY     N/A     25  21  83 N3        29.94F
HILL AFB       CLOUDY    30  20  66 SE7       29.92F WCI  23
LOGAN          CLOUDY    20  19  96 N3        29.93F
OGDEN          CLOUDY    31  22  69 SE12      29.92F WCI  22
SALT LAKE CITY CLOUDY    33  23  66 SE16      29.94F WCI  23
TOOELE VALLEY  CLOUDY    39  27  60 S23G30    29.91S WCI  29
WENDOVER       CLOUDY    28  21  74 NE10      29.87F WCI  19
HEBER CITY     CLOUDY    23  18  80 CALM      29.97F
WEST JORDAN    CLOUDY    30  27  88 S14       29.96S WCI  20

$$

UTZ011>015-024>027-221900-

CENTRAL/NORTHEAST UTAH

CITY           SKY/WX    TMP DP  RH WIND       PRES   REMARKS
PROVO AIRPORT  CLOUDY    29  27  92 SE8       29.99F WCI  21
MOAB/CANYONLAN CLOUDY    37  26  64 E7        30.09S WCI  32
DELTA          CLOUDY    32  27  80 S13       29.96F WCI  22
PRICE          CLOUDY    28  17  63 CALM      30.05R
ROOSEVELT      CLOUDY    25  23  93 CALM      30.13S FOG
VERNAL         CLOUDY    20  19  96 CALM      30.10S FOG

$$

UTZ013>016-019>022-027-221900-

SOUTHERN UTAH

CITY           SKY/WX    TMP DP  RH WIND       PRES   REMARKS
BRYCE CANYON   CLOUDY    22  19  89 SE15      30.06R WCI   9
CEDAR CITY     CLOUDY    34  27  75 SW13G22   29.99R WCI  25
MILFORD        CLOUDY    35  27  72 S17       29.97S WCI  25
ST GEORGE      CLOUDY    41  34  75 E12       30.15R
HANKSVILLE     CLOUDY    34  28  80 MISG      30.11S
BLANDING       CLOUDY    26  22  84 NE6       30.22F WCI  19

$$

REGIONAL REPORTS     COLORADO/ARIZONA

CITY           SKY/WX    TMP DP  RH WIND       PRES   REMARKS
CRAIG, CO      CLOUDY    15  10  80 SE3       30.08S
GRAND JUNCTION CLOUDY    34  26  72 SE6       30.12F WCI  29
RIFLE, CO      MOSUNNY   30  20  66 S3        30.12F
MONTROSE, CO   SUNNY     31  18  58 CALM      30.17R
CORTEZ, CO     CLOUDY    25  20  81 N3        30.19R
COLORADO CITY  LGT SNOW  34  32  93 SE9       30.15S WCI  26
PAGE, AZ       CLOUDY    38  27  64 NE5       30.14R WCI  34
GRAND CANYON   LGT SNOW  28  26  92 S13G20    30.15S FOG     WCI  17
KINGMAN, AZ    LGT RAIN  44  26  49 S12G22    30.14R
FLAGSTAFF, AZ  LGT SNOW  27  25  92 SW13      30.16S FOG     WCI  16

$$

REGIONAL REPORTS    NEVADA/IDAHO/WYOMING

CITY           SKY/WX    TMP DP  RH WIND       PRES   REMARKS
LAS VEGAS, NV  LGT RAIN  45  39  79 S6        30.06F
ELY, NY        CLOUDY    30  24  78 S22G31    29.84R WCI  17
ELKO, NV       CLOUDY    34  26  72 S17G29    29.76R WCI  23
POCATELLO, ID  CLOUDY    36  20  52 S17G33    29.84F WCI  26
BURLEY, ID     CLOUDY    35  22  58 SE5       29.80S WCI  31
FORT BRIDGER,    N/A     22  11  61 S7        29.97F WCI  14
EVANSTON, WY   CLOUDY    20  10  65 SE5       29.91F WCI  13
ROCK SPRINGS,  SUNNY     21  12  68 SE7       29.98S WCI  12

$$



USA.gov is the U.S. government's official web portal to all federal, state and local government web resources and services.